Regional Weather Roundup
Issued by NWS

Home | Current Version | Previous Version | Text Only | Print | Product List | Glossary Off
Versions: 1 2 3 4 5 6 7 8 9 10 11 12 13 14 15 16 17 18 19 20 21 22 23 24 25 26 27 28 29 30 31 32 33 34 35 36 37 38 39 40 41 42 43 44 45 46 47 48 49 50

000
ASUS43 KFSD 201710
RWRSD

WEATHER ROUNDUP FOR SOUTH DAKOTA
NATIONAL WEATHER SERVICE SIOUX FALLS SD
1200 PM CDT FRI OCT 20 2017

NOTE: "FAIR" INDICATES FEW OR NO CLOUDS BELOW 12,000 FEET WITH NO
SIGNIFICANT WEATHER AND/OR OBSTRUCTIONS TO VISIBILITY.


SDZ001>005-009-010-012>017-201800-
NORTHWEST AND NORTH CENTRAL SOUTH DAKOTA

CITY           SKY/WX    TMP DP  RH WIND       PRES   REMARKS
BUFFALO          N/A     73  33  23 SW16G22   29.35F
MOBRIDGE       MOSUNNY   67  49  52 S17       29.43F
$$

SDZ012>016-024>037-041>051-057-063-072>074-201800-
SOUTHWEST AND SOUTH CENTRAL SOUTH DAKOTA

CITY           SKY/WX    TMP DP  RH WIND       PRES   REMARKS
RAPID CTY ARPT SUNNY     72  35  25 S20       29.49F
PIERRE         MOSUNNY   68  50  52 S20       29.49F
CUSTER         SUNNY     66  31  27 W13G28    29.62F
ELLSWORTH AFB  SUNNY     72  35  25 S16       29.47F
PHILIP         MOSUNNY   71  47  42 S10       29.49F
PINE RIDGE     SUNNY     69  45  41 S17       29.56F
SPEARFISH      FAIR      75  34  22 SW13G22   29.48F
WINNER         FAIR      69  51  52 S26G35    29.58F
$$

SDZ004>011-016>023-039-040-201800-
NORTHEAST SOUTH DAKOTA

CITY           SKY/WX    TMP DP  RH WIND       PRES   REMARKS
ABERDEEN       MOSUNNY   65  50  58 S23G32    29.55F
WATERTOWN      MOSUNNY   67  52  58 S23G32    29.64F
BROOKINGS      SUNNY     67  53  61 S25G33    29.69F
SISSETON         N/A     69  51  52 S21G29    29.59F
$$

SDZ017-020-022-023-036>040-048>070-201800-
SOUTHEAST SOUTH DAKOTA

CITY           SKY/WX    TMP DP  RH WIND       PRES   REMARKS
SIOUX FALLS    MOSUNNY   68  55  63 S20G32    29.73F
HURON          SUNNY     69  51  52 S20G31    29.60F
CHAMBERLAIN    SUNNY     71  53  52 S18G24    29.58F
MITCHELL       SUNNY     70  52  52 S25G37    29.63F
YANKTON        SUNNY     70  54  56 S21G29    29.72F
$$

ABBREVIATIONS USED IN REMARKS
   TC - TEMPERATURE IN CELSIUS
  WCI - WIND CHILL INDEX
   HX - HEAT INDEX
  VSB - VISIBILITY





USA.gov is the U.S. government's official web portal to all federal, state and local government web resources and services.